Time,TemperatureF,DewpointF,PressureIn,WindDirection,WindDirectionDegrees,WindSpeedMPH,WindSpeedGustMPH,Humidity,HourlyPrecipIn,Conditions,Clouds,dailyrainin,SoftwareType,DateUTC
2013-01-09 00:01:00,51.1,42.7,30.15,South,186,1.0,1.0,73,0.00,,,0.00,Wunderground v.1.13,2013-01-09 08:01:00,
2013-01-09 00:11:00,50.8,42.8,30.15,South,186,1.0,1.0,74,0.00,,,0.00,Wunderground v.1.13,2013-01-09 08:11:00,
2013-01-09 00:16:00,50.8,42.8,30.15,South,184,1.0,1.0,74,0.00,,,0.00,Wunderground v.1.13,2013-01-09 08:16:00,
2013-01-09 00:21:00,50.7,42.7,30.15,South,185,1.0,2.0,74,0.00,,,0.00,Wunderground v.1.13,2013-01-09 08:21:00,
2013-01-09 00:26:00,50.8,42.8,30.15,South,185,1.0,3.0,74,0.00,,,0.00,Wunderground v.1.13,2013-01-09 08:26:00,
2013-01-09 00:31:00,50.7,42.7,30.15,South,184,2.0,2.0,74,0.00,,,0.00,Wunderground v.1.13,2013-01-09 08:31:00,
2013-01-09 00:41:00,50.5,42.5,30.15,South,182,3.0,3.0,74,0.00,,,0.00,Wunderground v.1.13,2013-01-09 08:41:00,
2013-01-09 00:46:00,50.3,42.3,30.15,South,183,2.0,2.0,74,0.00,,,0.00,Wunderground v.1.13,2013-01-09 08:46:00,
2013-01-09 00:51:00,50.1,42.5,30.15,South,184,1.0,1.0,75,0.00,,,0.00,Wunderground v.1.13,2013-01-09 08:51:00,
2013-01-09 00:56:00,50.3,42.7,30.15,South,184,2.0,3.0,75,0.00,,,0.00,Wunderground v.1.13,2013-01-09 08:56:00,
2013-01-09 01:06:00,50.0,42.4,30.15,South,184,1.0,1.0,75,0.00,,,0.00,Wunderground v.1.13,2013-01-09 09:06:00,
2013-01-09 01:11:00,49.9,42.3,30.15,South,184,1.0,1.0,75,0.00,,,0.00,Wunderground v.1.13,2013-01-09 09:11:00,
2013-01-09 01:16:00,50.1,42.5,30.15,South,185,1.0,1.0,75,0.00,,,0.00,Wunderground v.1.13,2013-01-09 09:16:00,
2013-01-09 01:21:00,50.3,42.7,30.15,South,186,2.0,2.0,75,0.00,,,0.00,Wunderground v.1.13,2013-01-09 09:21:00,
2013-01-09 01:26:00,50.3,42.7,30.15,South,184,1.0,6.0,75,0.00,,,0.00,Wunderground v.1.13,2013-01-09 09:26:00,
2013-01-09 01:31:00,50.6,42.6,30.15,South,184,1.0,1.0,74,0.00,,,0.00,Wunderground v.1.13,2013-01-09 09:31:00,
2013-01-09 01:41:00,49.7,42.1,30.15,South,184,1.0,2.0,75,0.00,,,0.00,Wunderground v.1.13,2013-01-09 09:41:00,
2013-01-09 01:46:00,49.6,42.0,30.16,South,183,1.0,4.0,75,0.00,,,0.00,Wunderground v.1.13,2013-01-09 09:46:00,
2013-01-09 01:51:00,49.5,41.9,30.16,South,184,2.0,4.0,75,0.00,,,0.00,Wunderground v.1.13,2013-01-09 09:51:00,
2013-01-09 01:56:00,49.5,42.2,30.16,South,182,3.0,3.0,76,0.00,,,0.00,Wunderground v.1.13,2013-01-09 09:56:00,
2013-01-09 02:01:00,49.3,42.1,30.16,South,182,2.0,2.0,76,0.00,,,0.00,Wunderground v.1.13,2013-01-09 10:01:00,
2013-01-09 02:06:00,49.0,42.1,30.16,South,182,1.0,1.0,77,0.00,,,0.00,Wunderground v.1.13,2013-01-09 10:06:00,
2013-01-09 02:16:00,48.7,42.1,30.16,South,182,0.0,0.0,78,0.00,,,0.00,Wunderground v.1.13,2013-01-09 10:16:00,
2013-01-09 02:21:00,48.9,42.3,30.16,South,181,0.0,1.0,78,0.00,,,0.00,Wunderground v.1.13,2013-01-09 10:21:00,
2013-01-09 02:26:00,49.1,42.2,30.16,South,183,1.0,1.0,77,0.00,,,0.00,Wunderground v.1.13,2013-01-09 10:26:00,
2013-01-09 02:31:00,48.7,42.1,30.16,South,182,1.0,1.0,78,0.00,,,0.00,Wunderground v.1.13,2013-01-09 10:31:00,
2013-01-09 02:36:00,48.4,41.9,30.16,South,182,1.0,1.0,78,0.00,,,0.00,Wunderground v.1.13,2013-01-09 10:36:00,
2013-01-09 02:41:00,48.3,42.1,30.16,South,182,1.0,1.0,79,0.00,,,0.00,Wunderground v.1.13,2013-01-09 10:41:00,
2013-01-09 02:51:00,48.3,42.1,30.16,South,182,0.0,0.0,79,0.00,,,0.00,Wunderground v.1.13,2013-01-09 10:51:00,
2013-01-09 02:56:00,48.2,42.0,30.15,South,181,0.0,0.0,79,0.00,,,0.00,Wunderground v.1.13,2013-01-09 10:56:00,
2013-01-09 03:01:00,48.1,41.9,30.15,South,180,0.0,2.0,79,0.00,,,0.00,Wunderground v.1.13,2013-01-09 11:01:00,
2013-01-09 03:06:00,48.3,42.1,30.15,South,185,1.0,10.0,79,0.00,,,0.00,Wunderground v.1.13,2013-01-09 11:06:00,
2013-01-09 03:11:00,48.5,42.3,30.15,South,179,3.0,3.0,79,0.00,,,0.00,Wunderground v.1.13,2013-01-09 11:11:00,
2013-01-09 03:16:00,48.4,42.2,30.15,South,178,2.0,2.0,79,0.00,,,0.00,Wunderground v.1.13,2013-01-09 11:16:00,
2013-01-09 03:21:00,48.6,42.4,30.15,South,176,0.0,0.0,79,0.00,,,0.00,Wunderground v.1.13,2013-01-09 11:21:00,
2013-01-09 03:26:00,49.1,42.5,30.14,South,172,1.0,1.0,78,0.00,,,0.00,Wunderground v.1.13,2013-01-09 11:26:00,
2013-01-09 03:36:00,49.9,42.6,30.14,South,180,3.0,3.0,76,0.00,,,0.00,Wunderground v.1.13,2013-01-09 11:36:00,
2013-01-09 03:41:00,49.9,42.3,30.14,South,173,3.0,3.0,75,0.00,,,0.00,Wunderground v.1.13,2013-01-09 11:41:00,
2013-01-09 03:46:00,49.9,42.3,30.14,South,183,3.0,3.0,75,0.00,,,0.00,Wunderground v.1.13,2013-01-09 11:46:00,
2013-01-09 03:51:00,49.8,42.2,30.14,South,179,2.0,2.0,75,0.00,,,0.00,Wunderground v.1.13,2013-01-09 11:51:00,
2013-01-09 03:56:00,49.0,41.4,30.13,South,178,1.0,1.0,75,0.00,,,0.00,Wunderground v.1.13,2013-01-09 11:56:00,
2013-01-09 04:01:00,48.3,41.4,30.13,South,174,0.0,0.0,77,0.00,,,0.00,Wunderground v.1.13,2013-01-09 12:01:00,
2013-01-09 04:11:00,48.2,41.7,30.13,South,176,1.0,3.0,78,0.00,,,0.00,Wunderground v.1.13,2013-01-09 12:11:00,
2013-01-09 04:16:00,48.4,41.5,30.13,South,173,1.0,1.0,77,0.00,,,0.00,Wunderground v.1.13,2013-01-09 12:16:00,
2013-01-09 04:21:00,48.2,41.3,30.13,South,182,2.0,2.0,77,0.00,,,0.00,Wunderground v.1.13,2013-01-09 12:21:00,
2013-01-09 04:31:00,48.6,41.7,30.13,South,175,2.0,2.0,77,0.00,,,0.00,Wunderground v.1.13,2013-01-09 12:31:00,
2013-01-09 04:36:00,48.4,41.5,30.13,South,176,2.0,2.0,77,0.00,,,0.00,Wunderground v.1.13,2013-01-09 12:36:00,
2013-01-09 04:41:00,48.1,41.6,30.13,South,179,1.0,3.0,78,0.00,,,0.00,Wunderground v.1.13,2013-01-09 12:41:00,
2013-01-09 04:46:00,48.0,41.5,30.13,South,176,2.0,6.0,78,0.00,,,0.00,Wunderground v.1.13,2013-01-09 12:46:00,
2013-01-09 04:51:00,48.0,41.5,30.13,South,175,3.0,3.0,78,0.00,,,0.00,Wunderground v.1.13,2013-01-09 12:51:00,
2013-01-09 04:56:00,47.8,41.3,30.13,South,187,2.0,5.0,78,0.00,,,0.00,Wunderground v.1.13,2013-01-09 12:56:00,
2013-01-09 05:01:00,47.8,41.6,30.13,South,175,3.0,3.0,79,0.00,,,0.00,Wunderground v.1.13,2013-01-09 13:01:00,
2013-01-09 05:11:00,47.9,41.7,30.13,South,179,2.0,2.0,79,0.00,,,0.00,Wunderground v.1.13,2013-01-09 13:11:00,
2013-01-09 05:16:00,48.2,41.7,30.13,South,173,2.0,2.0,78,0.00,,,0.00,Wunderground v.1.13,2013-01-09 13:16:00,
2013-01-09 05:21:00,48.3,41.8,30.14,South,180,2.0,2.0,78,0.00,,,0.00,Wunderground v.1.13,2013-01-09 13:21:00,
2013-01-09 05:26:00,48.1,41.6,30.14,South,180,1.0,2.0,78,0.00,,,0.00,Wunderground v.1.13,2013-01-09 13:26:00,
2013-01-09 05:31:00,48.1,41.6,30.14,South,173,1.0,3.0,78,0.00,,,0.00,Wunderground v.1.13,2013-01-09 13:31:00,
2013-01-09 05:36:00,47.6,41.4,30.14,South,171,1.0,2.0,79,0.00,,,0.00,Wunderground v.1.13,2013-01-09 13:36:00,
2013-01-09 05:41:00,47.3,41.4,30.14,SSE,161,1.0,1.0,80,0.00,,,0.00,Wunderground v.1.13,2013-01-09 13:41:00,
2013-01-09 05:46:00,47.3,41.4,30.14,South,173,1.0,3.0,80,0.00,,,0.00,Wunderground v.1.13,2013-01-09 13:46:00,
2013-01-09 05:56:00,47.5,41.6,30.14,South,175,1.0,1.0,80,0.00,,,0.00,Wunderground v.1.13,2013-01-09 13:56:00,
2013-01-09 06:01:00,47.3,41.4,30.14,South,175,0.0,0.0,80,0.00,,,0.00,Wunderground v.1.13,2013-01-09 14:01:00,
2013-01-09 06:06:00,47.6,41.7,30.14,South,183,1.0,1.0,80,0.00,,,0.00,Wunderground v.1.13,2013-01-09 14:06:00,
2013-01-09 06:11:00,47.9,42.0,30.14,South,184,2.0,2.0,80,0.00,,,0.00,Wunderground v.1.13,2013-01-09 14:11:00,
2013-01-09 06:16:00,47.9,41.7,30.14,South,182,1.0,1.0,79,0.00,,,0.00,Wunderground v.1.13,2013-01-09 14:16:00,
2013-01-09 06:21:00,47.8,41.6,30.14,South,182,0.0,0.0,79,0.00,,,0.00,Wunderground v.1.13,2013-01-09 14:21:00,
2013-01-09 06:31:00,47.4,41.2,30.15,South,182,0.0,0.0,79,0.00,,,0.00,Wunderground v.1.13,2013-01-09 14:31:00,
2013-01-09 06:36:00,47.4,41.5,30.15,South,181,1.0,2.0,80,0.00,,,0.00,Wunderground v.1.13,2013-01-09 14:36:00,
2013-01-09 06:41:00,48.3,41.8,30.15,South,182,2.0,2.0,78,0.00,,,0.00,Wunderground v.1.13,2013-01-09 14:41:00,
2013-01-09 06:46:00,48.3,41.8,30.15,SSE,167,2.0,5.0,78,0.00,,,0.00,Wunderground v.1.13,2013-01-09 14:46:00,
2013-01-09 06:51:00,48.3,41.8,30.15,South,178,2.0,3.0,78,0.00,,,0.00,Wunderground v.1.13,2013-01-09 14:51:00,
2013-01-09 06:56:00,48.4,41.9,30.15,South,176,1.0,1.0,78,0.00,,,0.00,Wunderground v.1.13,2013-01-09 14:56:00,
2013-01-09 07:01:00,48.1,41.6,30.14,South,177,1.0,1.0,78,0.00,,,0.00,Wunderground v.1.13,2013-01-09 15:01:00,
2013-01-09 07:11:00,47.6,41.4,30.15,South,175,1.0,1.0,79,0.00,,,0.00,Wunderground v.1.13,2013-01-09 15:11:00,
2013-01-09 07:21:00,48.3,41.8,30.15,South,174,1.0,1.0,78,0.00,,,0.00,Wunderground v.1.13,2013-01-09 15:21:00,
2013-01-09 07:26:00,48.3,41.4,30.15,South,175,1.0,1.0,77,0.00,,,0.00,Wunderground v.1.13,2013-01-09 15:26:00,
2013-01-09 07:31:00,48.2,41.3,30.15,South,182,1.0,5.0,77,0.00,,,0.00,Wunderground v.1.13,2013-01-09 15:31:00,
2013-01-09 07:36:00,48.5,41.6,30.15,South,186,2.0,2.0,77,0.00,,,0.00,Wunderground v.1.13,2013-01-09 15:36:00,
2013-01-09 07:41:00,48.7,41.5,30.15,South,182,2.0,2.0,76,0.00,,,0.00,Wunderground v.1.13,2013-01-09 15:41:00,
2013-01-09 07:46:00,48.8,41.6,30.15,South,180,1.0,1.0,76,0.00,,,0.00,Wunderground v.1.13,2013-01-09 15:46:00,
2013-01-09 07:56:00,49.3,42.1,30.15,South,179,0.0,0.0,76,0.00,,,0.00,Wunderground v.1.13,2013-01-09 15:56:00,
2013-01-09 08:01:00,50.1,42.5,30.16,South,178,0.0,0.0,75,0.00,,,0.00,Wunderground v.1.13,2013-01-09 16:01:00,
2013-01-09 08:11:00,50.7,42.4,30.16,South,178,0.0,0.0,73,0.00,,,0.00,Wunderground v.1.13,2013-01-09 16:11:00,
2013-01-09 08:16:00,51.1,42.7,30.16,South,179,0.0,0.0,73,0.00,,,0.00,Wunderground v.1.13,2013-01-09 16:16:00,
2013-01-09 08:21:00,51.2,42.8,30.16,South,179,0.0,0.0,73,0.00,,,0.00,Wunderground v.1.13,2013-01-09 16:21:00,
2013-01-09 08:26:00,51.5,42.8,30.16,South,179,0.0,0.0,72,0.00,,,0.00,Wunderground v.1.13,2013-01-09 16:26:00,
2013-01-09 08:31:00,51.9,43.2,30.16,South,179,0.0,0.0,72,0.00,,,0.00,Wunderground v.1.13,2013-01-09 16:31:00,
2013-01-09 08:36:00,52.1,43.3,30.16,South,179,0.0,0.0,72,0.00,,,0.00,Wunderground v.1.13,2013-01-09 16:36:00,
2013-01-09 08:46:00,52.2,43.4,30.16,South,179,0.0,0.0,72,0.00,,,0.00,Wunderground v.1.13,2013-01-09 16:46:00,
2013-01-09 08:51:00,53.0,43.8,30.16,South,179,0.0,0.0,71,0.00,,,0.00,Wunderground v.1.13,2013-01-09 16:51:00,
2013-01-09 08:56:00,53.6,44.0,30.17,South,179,0.0,0.0,70,0.00,,,0.00,Wunderground v.1.13,2013-01-09 16:56:00,
2013-01-09 09:01:00,54.5,44.2,30.17,South,179,0.0,0.0,68,0.00,,,0.00,Wunderground v.1.13,2013-01-09 17:01:00,
2013-01-09 09:06:00,54.9,44.1,30.16,South,179,0.0,0.0,67,0.00,,,0.00,Wunderground v.1.13,2013-01-09 17:06:00,
2013-01-09 09:11:00,55.0,44.2,30.16,South,179,0.0,0.0,67,0.00,,,0.00,Wunderground v.1.13,2013-01-09 17:11:00,
2013-01-09 09:16:00,55.4,44.2,30.16,South,179,0.0,0.0,66,0.00,,,0.00,Wunderground v.1.13,2013-01-09 17:16:00,
2013-01-09 09:26:00,56.4,44.8,30.17,South,179,0.0,0.0,65,0.00,,,0.00,Wunderground v.1.13,2013-01-09 17:26:00,
2013-01-09 09:31:00,56.7,45.1,30.17,South,179,0.0,0.0,65,0.00,,,0.00,Wunderground v.1.13,2013-01-09 17:31:00,
2013-01-09 09:36:00,57.3,45.6,30.17,South,179,0.0,0.0,65,0.00,,,0.00,Wunderground v.1.13,2013-01-09 17:36:00,
2013-01-09 09:41:00,57.9,45.4,30.17,South,179,0.0,0.0,63,0.00,,,0.00,Wunderground v.1.13,2013-01-09 17:41:00,
2013-01-09 09:46:00,58.4,45.8,30.17,South,179,0.0,0.0,63,0.00,,,0.00,Wunderground v.1.13,2013-01-09 17:46:00,
2013-01-09 09:51:00,59.0,48.4,30.17,South,179,0.0,0.0,68,0.00,,,0.00,Wunderground v.1.13,2013-01-09 17:51:00,
2013-01-09 09:56:00,59.6,50.6,30.17,SSW,198,0.0,0.0,72,0.00,,,0.00,Wunderground v.1.13,2013-01-09 17:56:00,
2013-01-09 10:01:00,59.6,50.9,30.17,WNW,290,1.0,1.0,73,0.00,,,0.00,Wunderground v.1.13,2013-01-09 18:01:00,
2013-01-09 10:11:00,59.3,51.4,30.17,NNW,329,3.0,3.0,75,0.00,,,0.00,Wunderground v.1.13,2013-01-09 18:11:00,
2013-01-09 10:16:00,60.2,52.6,30.17,NNW,329,2.0,2.0,76,0.00,,,0.00,Wunderground v.1.13,2013-01-09 18:16:00,
2013-01-09 10:21:00,60.2,53.0,30.17,NNW,329,0.0,0.0,77,0.00,,,0.00,Wunderground v.1.13,2013-01-09 18:21:00,
2013-01-09 10:26:00,59.9,52.7,30.17,NNW,333,1.0,4.0,77,0.00,,,0.00,Wunderground v.1.13,2013-01-09 18:26:00,
2013-01-09 10:31:00,59.9,53.4,30.17,NNW,333,2.0,2.0,79,0.00,,,0.00,Wunderground v.1.13,2013-01-09 18:31:00,
2013-01-09 10:36:00,59.5,53.0,30.17,NNW,334,3.0,3.0,79,0.00,,,0.00,Wunderground v.1.13,2013-01-09 18:36:00,
2013-01-09 10:46:00,59.6,53.4,30.17,NNW,334,2.0,2.0,80,0.00,,,0.00,Wunderground v.1.13,2013-01-09 18:46:00,
2013-01-09 10:51:00,59.6,53.1,30.17,NNW,336,1.0,1.0,79,0.00,,,0.00,Wunderground v.1.13,2013-01-09 18:51:00,
2013-01-09 10:56:00,59.2,53.0,30.16,NNW,336,1.0,1.0,80,0.00,,,0.00,Wunderground v.1.13,2013-01-09 18:56:00,
2013-01-09 11:01:00,59.1,53.6,30.16,NNW,336,1.0,1.0,82,0.00,,,0.00,Wunderground v.1.13,2013-01-09 19:01:00,
2013-01-09 11:06:00,58.7,53.9,30.16,NNW,336,1.0,1.0,84,0.00,,,0.00,Wunderground v.1.13,2013-01-09 19:06:00,
2013-01-09 11:11:00,58.0,54.2,30.16,NNW,336,1.0,1.0,87,0.00,,,0.00,Wunderground v.1.13,2013-01-09 19:11:00,
2013-01-09 11:21:00,57.5,54.3,30.16,NNW,336,1.0,1.0,89,0.00,,,0.00,Wunderground v.1.13,2013-01-09 19:21:00,
2013-01-09 11:26:00,57.2,54.3,30.15,NNW,336,1.0,1.0,90,0.00,,,0.00,Wunderground v.1.13,2013-01-09 19:26:00,
2013-01-09 11:31:00,57.0,54.4,30.15,NNW,336,0.0,3.0,91,0.00,,,0.00,Wunderground v.1.13,2013-01-09 19:31:00,
2013-01-09 11:36:00,56.8,54.2,30.15,NNW,336,0.0,3.0,91,0.00,,,0.00,Wunderground v.1.13,2013-01-09 19:36:00,
2013-01-09 11:41:00,56.5,53.9,30.15,NNW,336,1.0,1.0,91,0.00,,,0.00,Wunderground v.1.13,2013-01-09 19:41:00,
2013-01-09 11:46:00,56.9,54.6,30.14,NNW,336,1.0,1.0,92,0.00,,,0.00,Wunderground v.1.13,2013-01-09 19:46:00,
2013-01-09 11:51:00,57.7,55.4,30.14,NNW,336,1.0,1.0,92,0.00,,,0.00,Wunderground v.1.13,2013-01-09 19:51:00,
2013-01-09 11:56:00,57.9,55.0,30.14,NNW,336,1.0,3.0,90,0.00,,,0.00,Wunderground v.1.13,2013-01-09 19:56:00,
2013-01-09 12:01:00,57.9,55.0,30.14,NNW,333,2.0,7.0,90,0.00,,,0.00,Wunderground v.1.13,2013-01-09 20:01:00,
2013-01-09 12:11:00,57.8,54.9,30.13,NNW,335,3.0,3.0,90,0.00,,,0.00,Wunderground v.1.13,2013-01-09 20:11:00,
2013-01-09 12:21:00,58.3,54.8,30.13,NNW,336,1.0,1.0,88,0.00,,,0.00,Wunderground v.1.13,2013-01-09 20:21:00,
2013-01-09 12:26:00,58.4,55.2,30.12,NNW,336,0.0,1.0,89,0.00,,,0.00,Wunderground v.1.13,2013-01-09 20:26:00,
2013-01-09 12:31:00,58.0,54.8,30.12,NNW,336,1.0,1.0,89,0.00,,,0.00,Wunderground v.1.13,2013-01-09 20:31:00,
2013-01-09 12:36:00,58.3,55.1,30.12,NNW,336,1.0,1.0,89,0.00,,,0.00,Wunderground v.1.13,2013-01-09 20:36:00,
2013-01-09 12:41:00,58.1,54.6,30.12,NNW,336,1.0,1.0,88,0.00,,,0.00,Wunderground v.1.13,2013-01-09 20:41:00,
2013-01-09 12:46:00,58.6,55.4,30.11,NNW,336,1.0,1.0,89,0.00,,,0.00,Wunderground v.1.13,2013-01-09 20:46:00,
2013-01-09 12:51:00,58.7,55.2,30.11,NNW,336,0.0,0.0,88,0.00,,,0.00,Wunderground v.1.13,2013-01-09 20:51:00,
2013-01-09 13:01:00,57.4,54.5,30.11,NNW,336,1.0,1.0,90,0.00,,,0.00,Wunderground v.1.13,2013-01-09 21:01:00,
2013-01-09 13:06:00,57.1,54.2,30.11,NNW,336,2.0,2.0,90,0.00,,,0.00,Wunderground v.1.13,2013-01-09 21:06:00,
2013-01-09 13:11:00,57.1,54.5,30.11,NNW,336,1.0,1.0,91,0.00,,,0.00,Wunderground v.1.13,2013-01-09 21:11:00,
2013-01-09 13:16:00,56.7,54.1,30.11,NNW,336,1.0,1.0,91,0.00,,,0.00,Wunderground v.1.13,2013-01-09 21:16:00,
2013-01-09 13:21:00,56.9,54.6,30.10,NNW,336,1.0,4.0,92,0.00,,,0.00,Wunderground v.1.13,2013-01-09 21:21:00,
2013-01-09 13:26:00,56.5,54.2,30.10,NNW,336,1.0,1.0,92,0.00,,,0.00,Wunderground v.1.13,2013-01-09 21:26:00,
2013-01-09 13:36:00,56.3,54.0,30.09,NNW,336,0.0,0.0,92,0.00,,,0.00,Wunderground v.1.13,2013-01-09 21:36:00,
2013-01-09 13:41:00,56.2,54.2,30.09,NNW,336,1.0,1.0,93,0.00,,,0.00,Wunderground v.1.13,2013-01-09 21:41:00,
2013-01-09 13:46:00,56.2,53.9,30.10,NNW,336,1.0,1.0,92,0.00,,,0.00,Wunderground v.1.13,2013-01-09 21:46:00,
2013-01-09 13:51:00,56.1,54.1,30.10,NNW,336,1.0,1.0,93,0.00,,,0.00,Wunderground v.1.13,2013-01-09 21:51:00,
2013-01-09 13:56:00,56.0,53.7,30.10,NNW,336,0.0,0.0,92,0.00,,,0.00,Wunderground v.1.13,2013-01-09 21:56:00,
2013-01-09 14:01:00,55.8,53.8,30.10,NNW,336,0.0,0.0,93,0.00,,,0.00,Wunderground v.1.13,2013-01-09 22:01:00,
2013-01-09 14:11:00,55.9,53.9,30.09,NNW,336,0.0,0.0,93,0.00,,,0.00,Wunderground v.1.13,2013-01-09 22:11:00,
2013-01-09 14:16:00,55.9,53.9,30.09,NNW,336,0.0,0.0,93,0.00,,,0.00,Wunderground v.1.13,2013-01-09 22:16:00,
2013-01-09 14:21:00,56.0,54.0,30.09,NNW,336,0.0,0.0,93,0.00,,,0.00,Wunderground v.1.13,2013-01-09 22:21:00,
2013-01-09 14:26:00,55.5,53.5,30.09,NNW,336,0.0,0.0,93,0.00,,,0.00,Wunderground v.1.13,2013-01-09 22:26:00,
2013-01-09 14:31:00,55.6,53.6,30.09,NNW,336,0.0,0.0,93,0.00,,,0.00,Wunderground v.1.13,2013-01-09 22:31:00,
2013-01-09 14:41:00,56.1,54.1,30.09,NNW,336,0.0,0.0,93,0.00,,,0.00,Wunderground v.1.13,2013-01-09 22:41:00,
2013-01-09 14:46:00,56.0,53.7,30.09,NNW,336,0.0,0.0,92,0.00,,,0.00,Wunderground v.1.13,2013-01-09 22:46:00,
2013-01-09 14:56:00,55.9,53.9,30.09,NNW,338,0.0,0.0,93,0.00,,,0.00,Wunderground v.1.13,2013-01-09 22:56:00,
2013-01-09 15:06:00,55.8,53.8,30.10,NNW,339,0.0,0.0,93,0.00,,,0.00,Wunderground v.1.13,2013-01-09 23:06:00,
2013-01-09 15:11:00,55.6,53.6,30.10,NNW,339,0.0,0.0,93,0.00,,,0.00,Wunderground v.1.13,2013-01-09 23:11:00,
2013-01-09 15:16:00,55.6,53.6,30.09,NNW,339,0.0,0.0,93,0.00,,,0.00,Wunderground v.1.13,2013-01-09 23:16:00,
2013-01-09 15:21:00,55.6,53.6,30.10,NNW,339,0.0,0.0,93,0.00,,,0.00,Wunderground v.1.13,2013-01-09 23:21:00,
2013-01-09 15:31:00,55.6,53.6,30.10,NNW,339,0.0,2.0,93,0.00,,,0.00,Wunderground v.1.13,2013-01-09 23:31:00,
2013-01-09 15:36:00,55.6,53.6,30.10,NNW,339,1.0,1.0,93,0.00,,,0.00,Wunderground v.1.13,2013-01-09 23:36:00,
2013-01-09 15:41:00,55.6,53.6,30.10,NNW,339,0.0,0.0,93,0.00,,,0.00,Wunderground v.1.13,2013-01-09 23:41:00,
2013-01-09 15:46:00,55.4,53.4,30.10,NNW,339,0.0,0.0,93,0.00,,,0.00,Wunderground v.1.13,2013-01-09 23:46:00,
2013-01-09 15:51:00,55.5,53.5,30.11,NNW,338,0.0,0.0,93,0.00,,,0.00,Wunderground v.1.13,2013-01-09 23:51:00,
2013-01-09 16:01:00,55.5,53.5,30.11,NNW,340,0.0,0.0,93,0.00,,,0.00,Wunderground v.1.13,2013-01-10 00:01:00,
2013-01-09 16:06:00,55.6,53.6,30.10,NNW,340,0.0,0.0,93,0.00,,,0.00,Wunderground v.1.13,2013-01-10 00:06:00,
2013-01-09 16:11:00,55.5,53.2,30.10,NNW,342,0.0,2.0,92,0.00,,,0.00,Wunderground v.1.13,2013-01-10 00:11:00,
2013-01-09 16:16:00,55.4,53.1,30.10,NNW,341,0.0,0.0,92,0.00,,,0.00,Wunderground v.1.13,2013-01-10 00:16:00,
2013-01-09 16:26:00,55.4,53.1,30.09,NNW,341,0.0,0.0,92,0.00,,,0.00,Wunderground v.1.13,2013-01-10 00:26:00,
2013-01-09 16:31:00,55.4,53.1,30.09,NNW,341,0.0,0.0,92,0.00,,,0.00,Wunderground v.1.13,2013-01-10 00:31:00,
2013-01-09 16:41:00,55.3,53.0,30.09,NNW,344,1.0,1.0,92,0.00,,,0.00,Wunderground v.1.13,2013-01-10 00:41:00,
2013-01-09 16:46:00,55.3,53.0,30.10,North,349,1.0,1.0,92,0.00,,,0.00,Wunderground v.1.13,2013-01-10 00:46:00,
2013-01-09 16:51:00,55.2,52.9,30.10,NE,45,1.0,3.0,92,0.00,,,0.00,Wunderground v.1.13,2013-01-10 00:51:00,
2013-01-09 16:56:00,55.2,52.9,30.09,NE,53,1.0,1.0,92,0.00,,,0.00,Wunderground v.1.13,2013-01-10 00:56:00,
2013-01-09 17:01:00,55.1,52.8,30.08,NE,53,1.0,1.0,92,0.00,,,0.00,Wunderground v.1.13,2013-01-10 01:01:00,
2013-01-09 17:06:00,55.1,52.8,30.08,NE,53,0.0,0.0,92,0.00,,,0.00,Wunderground v.1.13,2013-01-10 01:06:00,
2013-01-09 17:11:00,55.0,52.4,30.08,NE,53,0.0,0.0,91,0.00,,,0.00,Wunderground v.1.13,2013-01-10 01:11:00,
2013-01-09 17:16:00,55.0,52.7,30.08,NE,53,0.0,0.0,92,0.00,,,0.00,Wunderground v.1.13,2013-01-10 01:16:00,
2013-01-09 17:26:00,54.8,52.2,30.08,ESE,102,0.0,2.0,91,0.00,,,0.00,Wunderground v.1.13,2013-01-10 01:26:00,
2013-01-09 17:31:00,54.7,52.1,30.08,ESE,109,0.0,0.0,91,0.00,,,0.00,Wunderground v.1.13,2013-01-10 01:31:00,
2013-01-09 17:36:00,54.5,51.9,30.09,ESE,109,0.0,0.0,91,0.00,,,0.00,Wunderground v.1.13,2013-01-10 01:36:00,
2013-01-09 17:41:00,54.4,51.8,30.09,ESE,109,0.0,0.0,91,0.00,,,0.00,Wunderground v.1.13,2013-01-10 01:41:00,
2013-01-09 17:46:00,54.2,51.6,30.09,ESE,109,0.0,0.0,91,0.00,,,0.00,Wunderground v.1.13,2013-01-10 01:46:00,
2013-01-09 17:51:00,54.1,51.5,30.09,ESE,109,0.0,0.0,91,0.00,,,0.00,Wunderground v.1.13,2013-01-10 01:51:00,
2013-01-09 18:01:00,54.0,51.4,30.09,ESE,109,0.0,0.0,91,0.00,,,0.00,Wunderground v.1.13,2013-01-10 02:01:00,
2013-01-09 18:06:00,54.0,51.4,30.09,ESE,109,0.0,0.0,91,0.00,,,0.00,Wunderground v.1.13,2013-01-10 02:06:00,
2013-01-09 18:11:00,53.9,51.3,30.09,ESE,109,0.0,0.0,91,0.00,,,0.00,Wunderground v.1.13,2013-01-10 02:11:00,
2013-01-09 18:16:00,53.9,51.3,30.09,ESE,109,0.0,0.0,91,0.00,,,0.00,Wunderground v.1.13,2013-01-10 02:16:00,
2013-01-09 18:26:00,53.9,51.3,30.08,ESE,109,0.0,0.0,91,0.00,,,0.00,Wunderground v.1.13,2013-01-10 02:26:00,
2013-01-09 18:31:00,53.9,51.3,30.09,ESE,109,0.0,0.0,91,0.00,,,0.00,Wunderground v.1.13,2013-01-10 02:31:00,
2013-01-09 18:36:00,54.0,51.7,30.09,ESE,109,0.0,0.0,92,0.00,,,0.00,Wunderground v.1.13,2013-01-10 02:36:00,
2013-01-09 18:41:00,54.0,51.7,30.09,ESE,109,0.0,0.0,92,0.00,,,0.00,Wunderground v.1.13,2013-01-10 02:41:00,
2013-01-09 18:46:00,53.9,51.6,30.09,ESE,109,0.0,0.0,92,0.00,,,0.00,Wunderground v.1.13,2013-01-10 02:46:00,
2013-01-09 18:51:00,53.7,51.1,30.09,ESE,109,0.0,0.0,91,0.00,,,0.00,Wunderground v.1.13,2013-01-10 02:51:00,
2013-01-09 18:56:00,53.5,50.9,30.08,ESE,109,0.0,0.0,91,0.00,,,0.00,Wunderground v.1.13,2013-01-10 02:56:00,
2013-01-09 19:01:00,53.4,51.1,30.08,ESE,109,0.0,0.0,92,0.00,,,0.00,Wunderground v.1.13,2013-01-10 03:01:00,
2013-01-09 19:06:00,53.4,51.1,30.09,ESE,109,0.0,0.0,92,0.00,,,0.00,Wunderground v.1.13,2013-01-10 03:06:00,
2013-01-09 19:11:00,53.4,51.1,30.09,ESE,109,0.0,0.0,92,0.00,,,0.00,Wunderground v.1.13,2013-01-10 03:11:00,
2013-01-09 19:16:00,53.3,51.0,30.08,ESE,109,0.0,0.0,92,0.00,,,0.00,Wunderground v.1.13,2013-01-10 03:16:00,
2013-01-09 19:26:00,53.0,50.7,30.08,ESE,109,0.0,0.0,92,0.00,,,0.00,Wunderground v.1.13,2013-01-10 03:26:00,
2013-01-09 20:06:00,52.5,50.2,30.08,ESE,111,0.0,0.0,92,0.00,,,0.00,Wunderground v.1.13,2013-01-10 04:06:00,
2013-01-09 20:11:00,52.5,50.2,30.08,ESE,110,0.0,0.0,92,0.00,,,0.00,Wunderground v.1.13,2013-01-10 04:11:00,
2013-01-09 20:16:00,52.5,50.2,30.08,ESE,110,0.0,0.0,92,0.00,,,0.00,Wunderground v.1.13,2013-01-10 04:16:00,
2013-01-09 20:21:00,52.3,50.0,30.08,ESE,110,0.0,0.0,92,0.00,,,0.00,Wunderground v.1.13,2013-01-10 04:21:00,
2013-01-09 20:26:00,52.2,49.9,30.08,ESE,110,0.0,0.0,92,0.00,,,0.00,Wunderground v.1.13,2013-01-10 04:26:00,
2013-01-09 20:31:00,52.2,49.9,30.08,ESE,110,0.0,0.0,92,0.00,,,0.00,Wunderground v.1.13,2013-01-10 04:31:00,
2013-01-09 20:41:00,52.1,49.8,30.08,ESE,110,0.0,0.0,92,0.00,,,0.00,Wunderground v.1.13,2013-01-10 04:41:00,
2013-01-09 20:46:00,52.1,49.8,30.07,ESE,110,0.0,0.0,92,0.00,,,0.00,Wunderground v.1.13,2013-01-10 04:46:00,
2013-01-09 20:51:00,52.1,49.8,30.07,ESE,111,0.0,0.0,92,0.00,,,0.00,Wunderground v.1.13,2013-01-10 04:51:00,
2013-01-09 21:06:00,52.1,49.8,30.07,ESE,110,0.0,0.0,92,0.00,,,0.00,Wunderground v.1.13,2013-01-10 05:06:00,
2013-01-09 21:11:00,52.0,49.7,30.07,ESE,110,0.0,0.0,92,0.00,,,0.00,Wunderground v.1.13,2013-01-10 05:11:00,
2013-01-09 21:16:00,52.1,49.8,30.08,ESE,110,0.0,0.0,92,0.00,,,0.00,Wunderground v.1.13,2013-01-10 05:16:00,
2013-01-09 21:21:00,51.8,49.5,30.08,ESE,111,0.0,0.0,92,0.00,,,0.00,Wunderground v.1.13,2013-01-10 05:21:00,
2013-01-09 21:26:00,51.7,49.5,30.08,ESE,110,0.0,0.0,92,0.00,,,0.00,Wunderground v.1.13,2013-01-10 05:26:00,
2013-01-09 21:31:00,51.8,49.5,30.08,ESE,111,0.0,0.0,92,0.00,,,0.00,Wunderground v.1.13,2013-01-10 05:31:00,
2013-01-09 21:36:00,52.0,49.7,30.08,ESE,110,0.0,0.0,92,0.00,,,0.00,Wunderground v.1.13,2013-01-10 05:36:00,
2013-01-09 21:46:00,53.1,51.1,30.07,ESE,110,0.0,0.0,93,0.00,,,0.00,Wunderground v.1.13,2013-01-10 05:46:00,
2013-01-09 21:51:00,53.2,50.9,30.07,ESE,111,0.0,0.0,92,0.00,,,0.00,Wunderground v.1.13,2013-01-10 05:51:00,
2013-01-09 21:56:00,52.9,50.6,30.07,ESE,110,0.0,0.0,92,0.00,,,0.00,Wunderground v.1.13,2013-01-10 05:56:00,
2013-01-09 22:01:00,52.6,50.3,30.07,ESE,111,0.0,0.0,92,0.00,,,0.00,Wunderground v.1.13,2013-01-10 06:01:00,
2013-01-09 22:06:00,52.3,50.0,30.07,ESE,111,0.0,0.0,92,0.00,,,0.00,Wunderground v.1.13,2013-01-10 06:06:00,
2013-01-09 22:11:00,51.8,49.5,30.07,ESE,110,0.0,0.0,92,0.00,,,0.00,Wunderground v.1.13,2013-01-10 06:11:00,
2013-01-09 22:21:00,51.2,49.0,30.06,ESE,111,0.0,2.0,92,0.00,,,0.00,Wunderground v.1.13,2013-01-10 06:21:00,
2013-01-09 22:31:00,51.1,48.9,30.06,SE,129,1.0,1.0,92,0.00,,,0.00,Wunderground v.1.13,2013-01-10 06:31:00,
2013-01-09 22:36:00,50.9,48.7,30.07,SE,129,0.0,0.0,92,0.00,,,0.00,Wunderground v.1.13,2013-01-10 06:36:00,
2013-01-09 22:41:00,50.7,48.5,30.07,SE,129,0.0,0.0,92,0.00,,,0.00,Wunderground v.1.13,2013-01-10 06:41:00,
2013-01-09 22:46:00,50.6,48.4,30.07,SE,130,0.0,0.0,92,0.00,,,0.00,Wunderground v.1.13,2013-01-10 06:46:00,
2013-01-09 22:51:00,50.6,48.4,30.07,SE,133,0.0,0.0,92,0.00,,,0.00,Wunderground v.1.13,2013-01-10 06:51:00,
2013-01-09 23:01:00,51.2,49.2,30.07,SE,144,0.0,0.0,93,0.00,,,0.00,Wunderground v.1.13,2013-01-10 07:01:00,
2013-01-09 23:06:00,51.4,49.4,30.07,SE,145,0.0,0.0,93,0.00,,,0.00,Wunderground v.1.13,2013-01-10 07:06:00,
2013-01-09 23:11:00,51.6,49.6,30.07,SE,145,0.0,0.0,93,0.00,,,0.00,Wunderground v.1.13,2013-01-10 07:11:00,
2013-01-09 23:16:00,51.5,49.5,30.07,SE,145,0.0,0.0,93,0.00,,,0.00,Wunderground v.1.13,2013-01-10 07:16:00,
2013-01-09 23:21:00,51.5,49.5,30.07,SSE,164,1.0,3.0,93,0.00,,,0.00,Wunderground v.1.13,2013-01-10 07:21:00,
2013-01-09 23:26:00,51.6,49.6,30.06,SSE,165,2.0,5.0,93,0.00,,,0.00,Wunderground v.1.13,2013-01-10 07:26:00,
2013-01-09 23:31:00,51.5,49.5,30.06,SSE,165,1.0,1.0,93,0.00,,,0.00,Wunderground v.1.13,2013-01-10 07:31:00,
2013-01-09 23:36:00,51.3,49.1,30.07,SSE,167,0.0,2.0,92,0.00,,,0.00,Wunderground v.1.13,2013-01-10 07:36:00,
2013-01-09 23:41:00,51.1,49.1,30.06,South,173,1.0,1.0,93,0.00,,,0.00,Wunderground v.1.13,2013-01-10 07:41:00,
2013-01-09 23:51:00,50.8,48.8,30.07,South,172,0.0,0.0,93,0.00,,,0.00,Wunderground v.1.13,2013-01-10 07:51:00,
2013-01-09 23:56:00,50.8,48.8,30.07,South,173,0.0,0.0,93,0.00,,,0.00,Wunderground v.1.13,2013-01-10 07:56:00,